Skip Page Navigation
NASA JPL Caltech
NASA Logo - Jet Propulsion Laboratory + View the NASA Portal
+ Center for Near-Earth Object Studies
JPL Home Earth Solar System Stars & Galaxies Technology
JPL Solar System Dynamics
BODIES ORBITS EPHEMERIDES TOOLS PHYSICAL DATA DISCOVERY FAQ SITE MAP
JPL Small-Body Database Browser
Search: [ help ]  
135701 (2002 PB24)
Classification: Main-belt Asteroid          SPK-ID: 2135701
Ephemeris | Orbit Diagram | Orbital Elements | Mission Design | Physical Parameters | Discovery Circumstances | Close-Approach Data ]

[ show orbit diagram ]
Orbital Elements at Epoch 2459200.5 (2020-Dec-17.0) TDB
Reference: JPL 21 (heliocentric ecliptic J2000)
 Element Value Uncertainty (1-sigma)   Units 
e .2505657971394304 2.9469e-08  
a 2.534688616147529 1.3046e-08 au
q 1.899582342542283 7.2037e-08 au
i 3.305787362175721 9.2338e-06 deg
node 288.9378019569377 7.5462e-05 deg
peri 104.6244129178522 7.9832e-05 deg
M 144.988885233771 2.623e-05 deg
tp 2458606.867652010301
(2019-May-03.36765201)
0.00010633 TDB
period 1473.958813682325
4.04
1.138e-05
3.116e-08
d
yr
n .2442402030899549 1.8857e-09 deg/d
Q 3.169794889752774 1.6315e-08 au
  Orbit Determination Parameters
   # obs. used (total)      548  
   data-arc span      7940 days (21.74 yr)  
   first obs. used      1998-07-26  
   last obs. used      2020-04-21  
   planetary ephem.      DE441  
   SB-pert. ephem.      SB441-N16  
   condition code      0  
   norm. resid. RMS      .54609  
   source      ORB  
   producer      Otto Matic  
   solution date      2021-Apr-13 18:14:13  

Additional Information
 Earth MOID = .908144 au 
 Jupiter MOID = 2.2887 au 
 T_jup = 3.402 
[ show covariance matrix ]

Ephemeris | Orbit Diagram | Orbital Elements | Mission Design | Physical Parameters | Discovery Circumstances | Close-Approach Data ]

Physical Parameter Table
Parameter Symbol Value Units Sigma Reference Notes
absolute magnitude H 16.12   n/a E2021B55  

135701 (2002 PB24)          Discovered 2002-Aug-06 by NEAT at Palomar
Reference: 20060907/Numbers.arcLast Updated: 2006-09-10

[ show close-approach data ]
Alternate Designations
 2002 PB24 = 1998 OV7 
Ephemeris | Orbit Diagram | Orbital Elements | Mission Design | Physical Parameters | Discovery Circumstances | Close-Approach Data ]
ABOUT SSD CREDITS/AWARDS PRIVACY/COPYRIGHT GLOSSARY LINKS
FirstGov 2021-May-14 22:53 UT
(server date/time)  
NASA Home Page
Site Manager:   Ryan S. Park
Webmaster  Alan B. Chamberlin